COSMOS 2460 (732)

Last updated on Fri Sep 04 2026 00:03:21 GMT+0000 (Coordinated Universal Time)

1 36402U 10007C 26246.14641670 -.00000031 00000+0 00000+0 0 9995 2 36402 65.3707 311.8269 0002261 206.9573 225.9785 2.13101814128390
UTC large
Height (km)
Speed (km/s)
/
Latitude / Longitude
Inclination (degrees)
Orbital Period (minutes)
Azimuth
Elevation
Range (km)
Doppler Factor

Next 0 passes for location: London (51.5072 / 0.1276)

No passes found over London.
COSMOS 2460 (732)